GFSGBSN_prec_radar_108.txt.gz
Reflectivity
-18 -17 -5 -20 -20 -20 -20 1 1 1 -17 -13 -20 -20 -20 -20 -20 -20 -20 -20 -20 -20 -20 -20 -20 -20 -20 -20 -20 -20 -20 -20 -20 -20 -20 -20 -20 -20 -20 -20 -20 -20 -20 -20 -20 -20 -20
-20 -20 -20 -20 -20 -20 -20 -20 -20 -10 12 -15 -14 -20 -20 -20 -20 -20 -20 -20 -20 -20 -20 -20 -20 -20 -20 -20 -20 -20 -20 -20 -20 -20 -20 -20 -20 -20 -20 -20 -20 -20 -20 -20 -20 -20 -20
6 -6 2 2 -20 2 -20 -20 0 -20 -20 -11 -3 -17 -20 -20 -20 -20 -20 -20 -20 -20 -20 -20 -20 -20 -20 -20 -20 -20 -20 -20 -20 -20 -20 -20 -20 -20 -20 -20 -20 -20 -20 -20 -20 -20 -20
19 -17 -11 13 13 17 15 -0 -3 -20 -20 -20 -18 -2 -20 -20 -20 -20 -20 -20 -20 -20 -20 -20 -20 -20 -20 -20 -20 -20 -20 -20 -20 -20 -20 -20 -20 -20 -20 -20 -20 -20 -20 -20 -20 -20 -20
7 15 -4 9 -5 7 -3 11 31 8 20 16 14 -17 -17 -20 -20 -20 -20 -20 -20 -20 -20 -20 -20 -20 -20 -20 -20 -20 -20 -20 -20 -20 -20 -20 -20 -20 -20 -20 -20 -20 -20 -20 -20 -20 -20
0 1 20 9 2 8 14 14 15 18 15 22 -3 16 15 -18 -20 -20 -20 -20 -20 -20 -20 -20 -20 -20 -20 -20 -20 -20 -20 -20 -20 -20 -20 -20 -20 -20 -20 -20 -20 -20 -20 -20 -20 -20 -20
6 -20 16 -5 8 8 1 15 12 6 8 12 6 15 22 22 19 -17 -20 -20 -20 -20 -20 -20 -20 -20 -20 -20 -20 -20 -20 -20 -20 -20 -20 -20 -20 -20 -20 -20 -20 -20 -20 -20 -20 -20 -20
11 10 12 -15 7 7 6 7 8 22 12 -8 13 31 12 26 12 -2 -20 -20 -20 -20 -20 -20 -20 -20 -20 -20 -20 -20 -20 -20 -20 -20 -20 -20 -20 -20 -20 -20 -20 -20 -20 -20 -20 -20 -20
10 8 11 12 11 4 14 13 21 15 7 15 25 17 24 12 9 -3 -15 -7 -20 -20 -20 -20 -20 -20 -20 -20 -20 -20 -20 -20 -20 -20 -20 -20 -20 -20 -20 -20 -20 -20 -20 -20 -20 -20 -20
10 9 -8 8 -20 -8 7 9 3 11 18 22 16 25 31 35 8 16 -8 6 -17 -20 -20 -20 -20 -20 -20 -20 -20 -20 -20 -20 -20 -20 -20 -20 -20 -20 -20 -20 -20 -20 -20 -20 -20 -20 -20
4 14 2 -13 14 9 10 15 20 19 19 10 22 12 27 30 27 12 -16 -20 -10 -10 7 -20 -20 -20 -20 -20 -20 -20 -20 -20 -20 -20 -14 -17 -20 -20 -20 -20 -20 -20 -20 -20 -20 -20 -20
-20 -9 11 5 12 9 4 13 21 20 16 22 19 16 21 19 19 22 4 -5 4 -20 -20 -20 -20 -20 -20 -20 -20 -20 -20 -20 -20 -20 -20 -20 -16 -10 -20 -20 -20 -20 -20 -20 -20 -20 -20
-20 -20 -0 11 5 21 21 9 22 21 16 17 20 18 9 12 -13 7 20 13 -13 -14 -5 -20 -20 -20 -20 -20 -20 -20 -20 -20 -20 -20 -20 -20 -20 -20 -20 -20 -20 -20 -20 -20 -20 -20 -20
-20 -20 -3 11 19 12 12 16 15 19 21 25 12 22 19 20 14 16 12 22 25 16 -17 -20 -20 -20 -20 -20 -20 -20 -20 -19 -17 -20 -20 -19 -19 -20 -20 -20 -20 -20 -20 -20 -20 -20 -20
-20 -20 -19 16 14 14 11 12 21 25 19 19 23 22 18 -4 2 -4 18 1 -7 10 -13 -20 -20 -20 -20 -20 -20 -20 -20 -20 -20 -20 -20 -20 -20 -20 -20 -20 -20 -20 -20 -20 -20 -20 -20
-20 -19 -8 19 12 17 16 23 23 10 12 22 33 -5 4 -2 -17 1 12 -9 -20 -20 -20 -20 -20 -20 -20 -20 -20 -20 -20 -20 -20 -20 -20 -20 -20 -20 -20 -20 -20 -20 -20 10 -13 10 -3
-19 -18 7 17 14 21 21 22 10 14 20 20 27 10 0 12 5 -20 -20 -20 -20 -17 -19 -20 -20 -20 -20 -20 -20 -20 -20 -20 -20 -20 -20 -20 -5 -20 -20 -20 -20 -20 -20 -20 -10 -11 -12
-6 10 21 20 19 25 8 16 18 7 23 18 11 -18 -20 -10 -20 -20 -20 -20 -11 -20 -9 0 -6 -20 -20 -20 -20 -20 -20 -20 -20 -20 -20 -20 -20 -5 -20 -1 -20 -20 -20 -19 11 18 -20
10 21 20 21 23 20 14 26 18 23 12 21 3 -19 6 -20 -20 -4 1 -9 -10 5 2 -16 -20 -20 -20 -20 -20 -20 -20 -20 -20 -20 -20 -9 -13 -20 -18 12 -3 3 -12 25 21 12 16
13 28 24 24 25 21 29 15 20 15 11 16 21 12 19 16 6 3 -17 -20 -10 -16 -20 -20 -20 -20 -20 -20 -20 -20 -20 -20 -20 -20 -20 -19 -13 -20 -20 -20 -18 -17 -3 9 9 -2 -17
27 20 21 26 13 23 16 31 24 25 21 13 4 -20 -17 1 -10 -3 6 0 -19 -20 -20 -20 -20 -20 -20 -20 -20 -20 -20 -20 -20 -20 -20 -20 -15 -20 -20 -20 0 17 17 7 13 -4 3
29 31 30 18 25 28 31 28 17 13 22 12 8 -16 -2 11 6 -14 -20 -20 -20 -20 -20 -20 -20 -20 -20 -20 -20 -20 -20 -20 -20 -20 -20 17 -0 -7 -20 -16 13 9 14 13 23 10 2
34 32 32 30 33 34 30 14 4 -2 -13 3 7 8 5 -18 -20 -20 -20 -20 -20 -20 -20 -20 -20 -20 -20 -20 -20 -20 -20 -20 -20 -20 -15 -5 18 12 18 -17 5 10 4 8 19 -14 -6
38 36 35 32 30 17 15 1 -8 -20 -19 1 -10 -18 -20 -20 -20 -20 -20 -20 -20 -20 -20 -20 -20 -20 -20 -20 -20 -20 -20 -20 -20 -6 23 19 18 15 19 8 4 -20 8 -17 -20 -20 -19
29 26 17 13 0 -7 -8 -18 -20 -20 -20 -20 -20 -20 -20 -20 -20 -20 -20 -20 -20 -20 -20 -20 -20 -20 -20 -20 -20 -20 -20 -20 -18 27 28 31 22 15 19 12 -20 8 -20 -20 -7 -20 -20
18 5 0 2 -2 -11 -10 -20 -20 -20 -20 -20 -20 -20 -20 -20 -20 -20 -20 -20 -20 -20 -20 -20 -20 -20 -20 -20 -20 -20 -18 -20 -9 7 -20 22 32 10 9 -17 -20 -20 -20 -20 -20 -20 -20
-9 -12 -16 -3 5 -7 -20 -20 -20 -20 -20 -20 -20 -20 -20 -20 -20 -20 -20 -20 -20 -20 -20 -20 -20 -20 -20 -20 -20 -20 -20 -20 -20 -20 -14 18 20 3 -17 -20 -20 -20 -20 -20 -15 -20 -20
4 -13 -0 -18 -11 -20 -20 -20 -20 -20 -20 -20 -20 -20 -20 -20 -20 -20 -20 -20 -20 -20 -20 -20 -20 -20 -20 -20 -20 -20 -20 -20 -20 -20 -14 10 22 17 -12 -20 -20 -19 -20 -20 -20 -20 -20
-20 -15 -5 -16 -20 -20 -20 -20 -20 -20 -20 -20 -20 -20 -20 -20 -20 -20 -20 -20 -20 -20 -20 -20 -20 -20 -20 -20 -20 -20 -20 -20 -20 -20 -20 -20 -9 -20 -20 -20 -20 -19 -4 -19 -20 -20 -20

GFSGBSN_prec_radar_114.txt.gz
Reflectivity
26 30 32 16 25 -20 -20 -20 -20 4 -12 -7 -20 3 -20 -20 -20 -20 -20 -20 -20 -20 -20 -20 -20 -20 -20 -20 -20 -20 -20 -20 -20 -20 -20 -20 -20 -20 -20 -20 -20 -20 -20 -20 -20 -20 -20
16 24 12 7 16 -20 -15 -20 -20 -20 -20 -20 -20 -0 -15 -20 -20 -20 -17 -20 -20 -20 -20 -20 -20 -20 -20 -20 -20 -20 -20 -20 -20 -20 -20 -20 -20 -20 -20 -20 -20 -20 -20 -20 -20 -20 -20
3 -8 -3 20 13 24 16 -7 -18 13 -20 -20 -8 11 -15 -20 -5 -20 -20 -20 -20 -20 -20 -20 -20 -20 -20 -20 -20 -20 -20 -20 -20 -20 -20 -20 -20 -20 -20 -20 -20 -20 -20 -20 -20 -20 -20
-20 -20 -20 -20 -20 9 -8 25 19 6 25 9 16 -3 16 0 -8 7 -6 -19 -20 -20 -20 -20 -20 -20 -20 -20 -20 -20 -20 -20 -20 -20 -20 -20 -20 -20 -20 -20 -20 -20 -20 -20 -20 -20 -20
-20 -20 -20 -20 -20 -20 -20 -2 17 4 21 5 19 22 18 17 12 -8 -20 -17 -20 -20 -20 -20 -20 -20 -20 -20 -20 -20 -20 -20 -20 -20 -20 -20 -20 -20 -20 -20 -20 -20 -20 -20 -20 -20 -20
-19 -20 -20 -11 8 -3 -20 -7 -20 -20 -20 10 24 28 13 23 12 -3 8 -20 -20 -20 -20 -20 -20 -20 -20 -20 -20 -20 -20 -20 -20 -20 -20 -20 -20 -20 -20 -20 -20 -20 -20 -20 -20 -20 -20
-20 12 -20 -20 -20 -20 9 7 -7 -5 -2 15 10 18 21 29 10 21 16 -20 -3 -20 -20 -20 -20 -20 -20 -20 -20 -20 -20 -20 -20 -20 -20 -20 -20 -20 -20 -20 -20 -20 -20 -20 -20 -20 -20
-20 -20 8 10 -1 7 -9 -6 13 -14 9 -3 12 15 9 8 17 3 13 -20 -9 -20 -20 -20 -20 -20 -20 -20 -20 -20 -20 -20 -20 -20 -20 -20 -20 -20 -20 -20 -20 -20 -20 -20 -20 -20 -20
-20 -20 -20 -11 -16 14 13 11 13 16 -20 6 14 16 8 10 13 -11 -19 -20 -20 -20 -14 -20 -20 -20 -20 -20 -20 -20 -20 -20 -20 -20 -20 -20 -20 -20 -20 -20 -20 -20 -20 -20 -20 -20 -20
5 -20 -20 -20 -20 -17 -20 -2 -11 10 19 -18 25 16 15 16 19 -20 -7 -20 -10 -13 -12 -20 -20 -20 -20 -20 -20 -20 -20 -20 -20 -20 -20 -20 -20 -20 -20 -20 -20 -20 -20 -20 -20 -20 -20
-5 -11 -20 -20 -20 -20 -20 -20 -20 22 16 17 19 14 -16 12 -18 -20 -19 -20 21 -20 9 -20 -20 -20 -20 -20 -20 -20 -20 -20 -20 -20 -20 -20 -20 -20 -20 -20 -20 -20 -20 -20 -20 -20 -20
-19 -14 9 -20 -20 -20 -20 -20 -20 -9 18 14 15 5 20 8 12 -15 -9 18 -2 17 10 -20 -20 -20 -20 -20 -20 -20 -20 -20 -20 -20 -20 -20 -20 -20 -20 -20 -20 -20 -20 -20 -20 -20 -20
-20 -20 -20 -18 -20 -20 -20 -20 -20 -17 17 11 12 -4 -3 -2 14 7 11 8 -7 14 -20 -20 -20 -20 -20 -20 -20 -20 -20 -20 -20 -20 -20 -20 -20 -20 -20 -20 -20 -20 -20 -20 -20 -20 -20
-2 -20 -20 -4 -20 -20 -20 -20 -18 8 20 25 15 19 18 8 33 -4 16 -2 1 -20 -20 -20 -20 -20 -20 -20 -20 -20 -20 -20 -20 -18 -20 -20 -20 -20 -20 -20 -20 -20 -20 -20 -20 -20 -20
2 -20 -19 -20 -14 -20 -20 -20 -20 7 26 33 18 6 20 4 16 17 1 11 -13 -20 -20 -20 -16 -10 -20 -20 -20 -20 -20 -20 -20 -20 -20 -20 -20 -20 -20 -20 -20 -20 -20 -20 -20 -20 -20
8 7 2 3 4 -10 -20 -13 -18 17 22 29 12 4 26 24 15 18 -6 -8 -20 -20 -20 -20 -20 -20 -20 -20 -20 -6 1 -20 -20 -20 -20 -20 -20 -20 -20 -20 -20 -20 -20 -11 -13 3 -4
-1 -20 -2 9 6 -5 -20 -20 15 22 13 26 12 27 13 18 21 24 -6 -20 -20 -20 -20 -20 -20 -20 -20 -20 -17 -8 -18 -20 -20 -20 -20 -20 -20 -20 -20 -20 -20 -20 -20 -20 3 10 11
7 -20 -16 -2 5 7 -20 6 20 22 18 21 30 18 24 20 6 25 -16 -20 -20 -20 -11 -20 -20 -20 -20 -20 -20 -20 -20 -20 -20 -20 -20 -20 -20 -20 -20 -20 -20 -20 -20 8 11 20 7
-2 -0 3 -13 -4 -1 -6 -20 21 17 16 21 31 33 16 21 17 -11 -20 -20 -4 -19 -20 -20 -20 -20 -20 -17 3 -20 -20 -20 -20 -20 -20 -16 0 -20 -13 -12 12 20 -16 -20 7 4 2
7 9 13 13 -6 -9 -6 8 25 14 -3 26 17 26 26 30 16 -18 -20 -20 -20 -20 -20 -20 -20 -20 -16 -12 -20 -20 -20 -20 -20 -20 -20 -20 -20 -20 -19 -17 -20 -19 5 8 14 16 10
-11 -12 2 4 -20 -20 -12 15 23 6 7 21 34 16 -8 13 10 -20 -20 -20 -20 -20 -20 -20 -20 -0 -19 -20 -20 -20 -20 -20 -20 -20 -20 5 -20 -20 -20 -20 -20 -20 1 3 -13 -0 7
19 14 7 4 6 -20 -2 17 19 13 26 4 29 -20 -20 -20 -20 -20 -20 -20 -20 -20 -15 6 -16 -20 -20 -20 -20 -20 -20 -20 -20 -20 -20 -2 -10 8 -4 -20 -10 5 -7 6 -3 -18 11
18 16 10 4 6 -5 -15 19 22 16 23 20 28 -14 -20 -20 -15 -20 -20 -20 -15 15 4 -20 -20 -20 -20 -20 -20 -20 -20 -20 -13 4 9 17 5 12 13 -5 5 -9 -1 10 6 -2 7
-14 10 -9 -3 1 1 22 24 17 20 22 16 6 -20 -15 -20 -20 -20 -20 -17 10 -7 -20 -20 -20 -20 -20 -20 -20 -20 -20 -12 2 -9 1 13 8 14 10 8 14 2 5 -2 -20 -2 -1
-18 -11 -7 3 9 27 19 26 26 30 18 19 -20 -20 -20 -20 4 12 12 11 -19 -20 -20 -20 -20 -20 -20 -20 -20 4 8 1 -20 -5 -2 0 12 14 16 11 -4 6 -2 -0 8 -3 -20
3 7 8 27 29 24 29 27 32 23 20 9 30 10 -20 27 27 7 -19 -20 -20 -20 -20 -20 -20 -20 -20 -16 -2 10 8 10 15 5 8 17 12 18 12 8 11 -18 -20 -20 -20 2 -20
37 28 28 28 31 33 30 31 30 35 29 29 3 -20 -20 -20 -16 -20 -20 -20 -20 -20 -20 -20 -20 -20 -20 4 -2 14 3 -2 9 4 10 13 15 4 4 10 -20 -20 -20 -20 -3 -0 -20
35 35 31 36 31 35 38 36 35 25 24 14 -19 -20 -20 -13 -20 -20 -20 -20 -20 -20 -20 -20 -20 -20 -20 -19 9 2 -3 -1 -5 -14 3 3 -1 11 5 10 -4 -20 -20 -7 -14 -20 -20
39 39 36 38 39 34 29 14 3 14 2 -20 -20 -15 -16 -20 -20 -20 -20 -20 -20 -20 -20 -20 -20 -20 -20 -20 -20 -9 -18 -19 2 3 -20 1 -9 3 -20 -18 -2 -2 -7 -12 -20 -20 -20

GFSGBSN_prec_radar_117.txt.gz
Reflectivity
23 32 12 6 28 17 -8 -12 -12 -18 -20 -20 -20 -19 -20 -20 -20 -20 -20 -20 -20 -20 -20 -20 -20 -20 -20 -20 -20 -20 -20 -20 -20 -20 -20 -20 -20 -20 -20 -20 -20 -20 -20 -20 -20 -20 -20
22 -2 39 20 23 32 38 31 31 29 12 -20 -20 -20 -20 -20 -20 -20 -20 -20 -20 -20 -20 -20 -20 -20 -20 -20 -20 -20 -20 -20 -20 -20 -20 -20 -20 -20 -20 -20 -20 -20 -20 -20 -20 -20 -20
14 7 3 18 21 3 21 36 21 24 22 20 18 12 0 -20 -14 -20 -9 -10 -20 -20 -20 -20 -20 -20 -20 -20 -20 -20 -20 -20 -20 -20 -20 -20 -20 -20 -20 -20 -20 -20 -20 -20 -20 -20 -20
-3 -20 -20 -20 -20 0 -15 22 7 20 21 23 17 14 25 6 19 6 -7 -7 -0 -20 -20 -20 -20 -20 -20 -20 -20 -20 -20 -20 -20 -20 -20 -20 -20 -20 -20 -20 -20 -20 -20 -20 -20 -20 -20
-20 -20 -20 -20 -20 -19 7 7 -0 -13 -3 22 -4 21 27 20 24 9 0 7 -20 -20 -20 -20 -20 -20 -20 -20 -20 -20 -20 -20 -20 -20 -20 -20 -20 -20 -20 -20 -20 -20 -20 -20 -20 -20 -20
-20 -20 -20 -20 -20 -19 -20 -1 -17 -10 -6 6 -12 -1 13 15 15 14 13 -20 -20 -20 -20 -20 -20 -20 -20 -20 -20 -20 -20 -20 -20 -20 -20 -20 -20 -20 -20 -20 -20 -20 -20 -20 -20 -20 -20
-20 -20 -20 -20 -20 -20 -20 -20 -1 -2 -20 -20 -12 7 14 6 17 28 -5 -2 -20 -20 -20 -20 -20 -20 -20 -20 -20 -20 -20 -20 -20 -20 -20 -20 -20 -20 -20 -20 -20 -20 -20 -20 -20 -20 -20
11 -20 -20 -20 -20 9 -0 -20 -20 12 -12 -17 -20 2 14 3 5 -8 3 -10 18 -18 -20 -20 -20 -20 -20 -20 -20 -20 -20 -20 -20 -20 -20 -20 -20 -20 -20 -20 -20 -20 -20 -20 -20 -20 -20
-20 5 -20 -20 -20 -20 -20 -20 -20 -6 12 -20 2 7 14 11 16 5 -20 -20 -20 -20 -20 -20 -20 -20 -20 -20 -20 -20 -20 -20 -20 -20 -20 -20 -20 -19 -20 -20 -20 -20 -20 -20 -20 -20 -20
-19 -20 -8 2 -20 -20 -20 -20 -20 -20 -20 -19 -18 18 17 14 18 -20 -20 -20 -20 -20 -20 -20 -20 -20 -20 -20 -20 -20 -20 -20 -20 -20 -20 -20 -20 -20 -20 -20 -20 -20 -20 -20 -20 -20 -20
-20 -20 -20 -20 7 -20 -20 -20 -20 -20 -20 -20 2 17 -18 5 -6 -15 -18 -20 -20 -20 -12 -20 -20 -20 -20 -20 -20 -20 -20 -20 -20 -20 -20 -20 -20 -20 -20 -20 -20 -20 -20 -20 -20 -20 -20
-2 -1 -8 -1 -20 4 -20 -20 -20 -20 -20 10 15 -18 -2 12 -4 -20 -5 -20 -6 13 3 -20 -20 -20 -20 -20 -20 -20 -20 -20 -20 -20 -20 -20 -20 -20 -20 -20 -20 -20 -20 -20 -20 -20 -20
-20 -2 6 -20 -20 -20 1 -20 -20 -19 -20 12 20 -3 -15 -20 -17 -6 -20 -20 19 -8 -20 -20 -20 -20 -20 -20 -20 -20 -20 -20 -20 -20 -20 -20 -20 -20 -20 -20 -20 -20 -20 -20 -20 -17 -20
-17 -20 -17 4 -17 -20 -20 -20 -20 -20 -20 13 18 2 15 -18 -16 -6 -20 10 21 -20 -20 -20 -20 -20 -20 -20 -20 -20 -20 -20 -20 -20 -20 -20 -20 -3 -20 -20 -20 -20 -20 -20 -20 -20 -20
4 -17 -20 -20 1 -20 -20 -20 -20 -20 -20 21 26 32 -5 -20 -5 15 18 22 -20 -19 -20 -20 -20 -20 -20 -20 -20 -20 -20 -20 -20 -20 -20 -20 -19 -20 -20 -20 -20 -20 -20 -20 -20 -20 -20
1 -11 7 5 -20 -20 -20 -20 -20 -20 12 19 13 5 25 -1 0 15 35 26 -11 -13 -20 -20 -20 -20 -20 -20 -20 -20 -20 -20 -20 -20 -15 7 -5 -17 -20 -20 -20 -20 -20 -20 -20 -12 -12
-7 9 -20 1 10 -20 -20 -20 -20 -13 9 15 16 14 34 22 5 28 22 -20 -20 -20 -20 -20 -20 -20 -20 -20 -20 -20 -20 -20 -20 -20 -19 -20 -20 -20 -20 -20 -20 -20 -20 -20 -20 13 12
-20 -20 -20 -20 11 -20 -19 -20 -18 17 17 18 12 13 30 23 14 28 20 -20 -20 -20 -20 -20 -20 -20 -20 -7 -20 -20 -20 -20 -20 -20 -20 -20 -20 -20 -20 -20 -20 -20 -20 -20 -1 6 -1
-13 -15 -8 8 -13 -20 -20 -20 6 24 15 -10 21 18 40 32 -7 -12 -20 -20 -20 -20 -20 -20 -20 -20 -20 -20 -20 -20 -20 -20 -20 -20 -20 -20 -20 -20 -20 -14 -20 17 -20 -20 12 20 8
6 10 9 -2 -6 -20 -20 -20 -20 17 21 -1 16 18 33 34 17 -14 -17 -20 -20 -20 -20 -20 -20 -20 -20 -20 -20 -20 -20 -20 -20 -20 -20 -20 -20 -20 -7 5 9 14 10 -5 -2 9 11
5 6 9 13 -12 10 -8 -20 -20 11 25 13 21 11 -10 14 12 -7 -17 -20 -20 -20 -20 -20 -20 -20 -20 -20 -20 -20 -20 -20 -20 -20 -20 -20 -2 -2 -20 -20 -20 -20 -13 6 4 6 3
13 12 11 10 11 12 -20 -20 -20 22 23 20 4 5 -19 -17 -20 -18 7 -20 -20 -20 -20 -20 -20 -20 -18 -18 -20 -20 -20 -20 -20 -20 -20 -14 -9 5 -20 -20 -13 3 -3 1 -11 -18 -20
12 12 12 12 13 17 -3 -20 -15 23 24 29 -5 2 -8 -7 -2 5 -20 -20 -20 -20 -20 -20 -4 6 -20 -20 -20 -20 -20 -20 -20 -6 -15 1 11 10 9 1 -19 8 -10 -20 3 -18 6
11 13 13 3 -20 17 15 -20 16 13 13 15 6 -7 1 -20 -11 -20 -20 -20 -20 -20 -20 5 12 -20 -20 -20 -20 -20 -20 -20 3 3 5 12 14 15 11 -12 14 -3 -20 -10 6 6 -12
18 16 14 11 28 23 1 -8 15 8 17 5 7 -20 -13 -19 -10 6 -20 -20 -19 -20 -20 -3 -20 -20 -20 -20 -18 8 7 7 -16 -5 -17 -2 16 19 17 16 1 1 -2 -2 7 -1 7
11 35 19 11 20 14 15 13 16 19 24 17 9 -6 16 -19 6 -20 -14 -20 -20 7 3 7 -20 -20 -20 -6 5 5 6 -16 11 0 -5 4 6 15 20 12 16 -17 4 -20 -20 2 -20
10 30 15 9 8 8 6 22 12 27 28 27 3 31 8 2 -20 -20 -13 -20 5 -6 -20 -20 -20 -20 -20 5 -2 15 20 4 22 18 7 4 6 9 2 16 3 -20 -20 -20 5 4 -20
7 11 2 6 -0 -10 19 27 28 25 29 29 9 15 36 11 22 26 21 10 3 -19 -20 -20 -9 -20 -20 5 14 18 19 9 6 7 5 9 18 14 5 21 14 -20 -20 -10 -14 -20 -20
12 20 23 24 22 27 25 22 21 27 26 14 23 28 33 28 22 8 -7 -11 -18 -20 -20 -20 -20 -20 -20 -17 17 18 -9 -5 8 8 -20 5 -10 8 -20 -4 -10 -18 -18 -20 -20 -20 -5

GFSGBSN_prec_radar_123.txt.gz
Reflectivity
28 16 9 9 5 9 8 16 7 -11 -20 -20 -20 -20 -20 -20 -20 -20 -18 -20 -20 -20 -20 -20 -20 -20 -20 -20 -20 -20 -20 -20 -20 -20 -20 -20 -20 -20 -20 -20 -20 -20 -20 -20 -20 -20 -20
9 22 19 22 29 25 20 19 22 9 15 2 2 15 23 -1 6 4 26 -20 -20 -20 -20 -20 -20 -20 -20 -20 -20 -20 -20 -20 -20 -20 -20 -20 -20 -20 -20 -20 -20 -20 -20 -20 -20 -20 -20
1 26 12 27 7 20 24 17 34 17 23 26 34 14 19 26 23 27 23 10 -19 -20 -20 -20 -20 -20 -20 -20 -20 -20 -20 -20 -20 -20 -20 -13 -20 -20 -20 -20 -20 -20 -20 -20 -20 -20 -20
8 4 -9 17 25 8 1 13 25 27 26 28 33 25 27 10 20 24 34 9 21 -12 -20 -20 -20 -20 -20 -20 -20 -20 -20 -20 -20 -20 -20 -20 -20 -20 -20 -20 -20 -20 -20 -20 -20 -20 -20
9 3 -20 -20 -20 5 -2 28 22 13 24 29 11 0 23 31 8 12 11 18 -17 -20 -11 -20 -20 -20 -20 -20 -20 -20 -20 -20 -20 -20 -20 -20 -20 -20 -20 -20 -20 -17 -10 -20 -20 -20 -20
4 8 -20 -20 -20 -20 -20 -5 12 -7 -6 7 7 -0 11 4 26 21 15 22 -18 -6 -20 -20 0 -17 -20 -20 -20 -20 -20 -20 -20 -20 -20 -20 -20 -20 -20 -20 -20 -20 -20 -20 -20 -11 -20
-20 -1 -9 8 -20 -20 -20 -20 -14 -20 -20 -20 9 7 -18 -18 18 18 -20 -7 -20 -20 -20 -13 -15 -20 -20 -20 -20 -20 -20 -20 -20 -20 -20 -20 -20 -20 -20 -20 -20 -20 -20 -20 -20 -20 -20
4 -0 -20 -20 10 -20 -20 -20 8 -20 -20 -20 -20 12 15 5 12 19 -1 9 -17 -20 -20 -20 -20 -20 -20 -20 -20 -20 -20 -20 -20 -20 -20 -20 -20 -20 -20 -20 -20 -20 -20 -20 -20 -20 -20
12 12 1 -20 12 9 -20 -20 -20 -20 -20 -20 -20 5 16 16 18 19 -19 -6 1 -20 -20 -20 -20 -20 -20 -20 -20 -20 -20 -20 -20 -20 -20 -20 -20 -20 -20 -20 -20 -20 -20 -20 -20 -20 -20
16 14 10 -20 2 -0 -20 -20 -20 -20 -20 -20 6 17 14 12 20 -1 -13 -20 -20 -20 -20 -20 -20 -20 -20 -20 -20 -20 -20 -20 -20 -20 -20 -20 -20 -20 -20 -20 -20 -20 -20 -20 -20 -20 -20
13 13 14 12 -0 11 -9 -20 -20 -20 -20 -20 -15 18 -18 -17 -20 -20 -20 -18 -20 -20 -20 -20 -20 -20 -20 -20 -20 -20 -20 -20 -20 -20 -20 -20 -20 -20 -20 -20 -20 -20 -20 -20 -20 -20 -20
12 11 12 12 13 -14 -20 -20 -20 -20 -20 -20 1 -3 5 16 2 -20 -20 -12 -20 -19 -20 -20 -20 -20 -20 -20 -20 -20 -20 -20 -20 -20 -20 -20 -20 -20 -20 -20 -20 -20 -20 -20 -20 -20 -20
10 2 3 14 6 14 -10 -20 -20 -20 -20 -20 -2 16 12 -16 -20 1 20 0 5 -0 -20 -20 -20 -20 -20 -20 -20 -20 -20 -20 -20 -20 -20 -20 -20 -20 -20 -20 -20 -20 -20 -20 -20 -20 -20
2 -5 -5 2 12 11 6 -16 -20 -20 -20 -20 -17 16 16 -4 14 10 16 11 8 -20 -20 -20 -20 -20 -20 -20 -20 -20 -20 -20 -20 -20 -20 -20 -20 -20 -20 -20 -20 -20 -20 -20 -20 -20 -20
17 -9 -3 -16 5 -18 4 -19 -17 -20 -20 -20 14 13 23 17 21 2 22 30 -18 -20 -20 -20 -20 -20 -20 -20 -20 -20 -20 -20 -20 -20 -20 -20 -20 -20 -20 -20 -20 -20 -20 -20 -4 -20 -20
14 -15 1 -20 -20 -20 -2 -1 -15 -20 -20 -3 5 10 7 8 5 20 15 5 -20 -20 -20 -20 -20 -20 -20 -20 -20 -20 -20 -20 -20 -20 -20 -20 -20 -20 -20 -20 -20 -20 -20 -20 -20 -20 -20
17 14 14 -20 -20 3 13 10 -20 -12 -20 12 -19 17 -5 -20 27 36 18 18 -20 -20 -20 -20 -20 -20 -20 -20 -20 -20 -20 -20 -20 -20 -20 -20 -20 -20 -20 -20 -20 -20 -20 -20 -20 -20 -20
16 16 -4 18 -20 17 10 -14 -20 -20 -20 12 11 20 1 4 19 27 24 34 -16 -20 -20 -20 -8 -20 2 -20 -20 -19 -20 3 -19 -20 -20 -20 -20 -20 -20 -20 -20 -20 -20 -20 -20 -20 -20
-20 -20 -20 -20 -20 -20 -20 -20 -19 -2 -2 15 14 21 -2 7 21 0 5 -20 -20 -20 -20 -20 10 -20 -20 -20 -20 -20 -20 -20 -20 -20 -20 -20 -20 -20 -20 -20 -20 -20 -20 -20 -20 -20 -10
12 12 -2 10 -8 -20 -14 -20 -20 4 -9 21 11 13 16 30 6 -9 -20 -20 -0 -20 -10 11 -18 10 4 -17 -20 -20 -20 -20 -20 -20 -20 -20 -20 -20 -20 -20 -20 -20 -20 -20 -11 12 -13
13 10 -17 5 5 11 4 -16 -20 -12 12 21 8 21 -17 5 -6 -7 -3 -20 -19 -17 -20 -2 8 -19 -20 -20 -20 -20 -20 -20 -20 -20 -20 -20 -20 -20 -20 -20 -20 -20 -20 -20 -20 -20 3
6 11 -20 19 -20 17 12 -20 -18 -20 0 23 22 18 -20 -20 -20 -20 0 -4 -20 -20 -20 -20 -20 -20 -20 -20 -20 -20 -20 -20 -20 -20 -20 -20 -20 -20 -20 -20 -20 -20 -20 -20 -20 -20 -20
10 12 13 7 -9 9 18 14 -20 -20 12 15 38 -15 -20 -20 -20 -13 -20 -20 -20 -19 6 -20 -20 -20 -20 -20 -20 -20 -20 -20 -20 -20 -20 -20 -20 -20 -20 -18 11 -20 -20 -20 -20 -20 -20
-2 9 11 14 -2 -20 17 13 11 -20 -9 16 28 -20 2 -4 -20 -20 -20 -20 -20 -20 1 20 -8 -20 -20 -20 -20 -20 -20 -20 -20 -20 -20 -20 -20 -20 -20 -20 -11 -20 -20 -20 -20 -20 -20
8 11 10 11 -6 16 -2 20 13 -20 -0 -10 23 2 5 -4 -20 -20 -20 -20 -20 -3 -13 5 7 -14 -20 -20 -20 -20 -20 -20 -17 -14 -20 -20 -20 -20 -20 -11 -20 -20 -20 -20 -20 -20 -20
0 -4 8 12 11 13 16 8 -20 -20 -2 12 17 17 20 17 6 -18 -20 -20 -20 -20 -20 30 25 -20 -20 -20 -20 -20 -20 -18 -6 -20 -20 -20 -20 -20 12 14 11 -20 2 -20 -20 -20 -20
14 12 20 20 15 15 16 -20 -20 15 -8 10 15 11 21 23 -20 19 -20 -20 -19 -20 -20 0 -12 -20 -20 -20 -20 -16 -20 -1 2 -20 -6 3 -9 -6 -7 -15 -20 -20 -20 -20 -14 -20 -20
32 27 25 27 29 9 6 -17 -20 16 3 19 -7 12 20 26 21 3 -9 -20 -11 -20 -20 -16 -20 -20 -20 -14 -5 -8 5 -17 -5 28 -16 -18 -20 -13 -2 13 8 -20 -20 -20 -20 -20 -20
22 33 27 21 31 8 -0 -20 -20 5 -20 19 -14 14 -6 30 -10 15 37 15 -15 -20 -20 -20 -9 -20 8 5 4 4 3 -20 -20 20 10 -10 -20 -20 -20 -20 -20 -20 -20 -20 -20 -20 -20